Location: Unspecified
(0.0000°N, 0.0000°E)
Time: 23:24:29
(UTC+00:00)

ISS - Pass Details

Date: 13 January 2019
Orbit: 404 x 410 km, 51.6° (Epoch: 20 January)

Event Time Altitude Azimuth Distance (km) Brightness Sun altitude
Rises 19:31:43 0° 212° (SSW) 2,322 0.9 -19.3°
Reaches altitude 10° 19:33:48 10° 209° (SSW) 1,462 -0.3 -19.7°
Enters shadow 19:36:42 61° 169° (S) 466 -3.6 -20.4°
